Weather in Gorki

Russia / Yamalo-Nenets Autonomous Okrug     65°03′19″N   65°16′25″E
temp.,
°C
wind,
m/s
gust,
m/s
humid.,
%
clouds,
%
prec.,
mm/h
press.,
hPa
HPBL,
m
27 february, sat
sat2723:00−21ssw3494100 0.0 102229
02:00−22s349575 0.0 102223
05:00−23s449570 0.0 102334
08:00−24s449667 0.0 102233
11:00−22s459571 0.0 1023107
14:00−20s459549 0.0 1023146
17:00−22sse459748 0.0 102360
20:00−24s459614 0.0 102247
28 february, sun
sun2823:00−25s459512 0.0 102244
02:00−26s45970 0.0 102139
05:00−27s45970 0.0 102252
08:00−28s56960 0.0 102169
11:00−26s57952 0.0 1021168
14:00−24s579412 0.0 1021202
17:00−25sse569338 0.0 102180
20:00−26s559255 0.0 102059
1 march, mon
mon123:00−26s459064 0.0 102145
02:00−27s459170 0.0 102045
05:00−28s459669 0.0 101944
08:00−28s459883 0.0 101957
11:00−25s589687 0.0 1018197
14:00−22s699589 0.0 1015259
17:00−22s7119493 0.0 1014186
20:00−23s6119650 0.0 1011151
2 march, tue
tue223:00−21s8139655 0.0 1010220
02:00−20s91495100 0.0 1007259
05:00−20s91493100 0.0 1006312
08:00−20s91492100 0.0 1004334
11:00−19s91491100 0.0 1004397
14:00−17s91490100 0.0 1003440
17:00−15s81489100 0.0 1003464
20:00−14s91492100 0.1 1002490
3 march, wed
wed323:00−14s91394100 0.7 1002493
02:00−15s81294100 0.6 1001438
05:00−15s81295100 1.3 1001402
08:00−16s81295100 0.8 1001384
11:00−15s81194100 1.3 1001442
14:00−14s71093100 0.4 1001487
17:00−13s61093100 0.7 1001453
20:00−14s61194100 0.3 1001375